Location: Melbourne
(37.8170°S, 144.9670°E)
Time: 04:11:19
(UTC+11:00)

deb Explorer IX - All Passes

Search period start: 01 October 2016 23:00
Search period end: 12 October 2016 00:00
Orbit: 552 x 1125 km, 38.8° (Epoch: 30 September)

Date Brightness Start Highest point End Pass type
(mag) Time Alt. Az. Time Alt. Az. Time Alt. Az.
02 Oct - 00:15:02 10° WSW 00:21:59 73° NNW 00:29:27 10° ENE night (unlit)
02 Oct - 03:03:04 10° W 03:09:24 33° NW 03:15:51 10° NNE night (unlit)
02 Oct - 19:36:42 10° NNW 19:41:18 31° NE 19:46:36 10° E daylight
02 Oct - 21:22:34 10° WNW 21:28:18 79° NNE 21:35:05 10° ESE visible
02 Oct - 23:09:46 10° W 23:16:07 82° S 23:23:23 10° E visible
03 Oct - 00:57:12 10° WSW 01:04:01 71° NNW 01:11:26 10° ENE night (unlit)
03 Oct - 02:45:14 10° W 02:51:25 31° NW 02:57:45 10° NNE night (unlit)
03 Oct - 19:18:53 10° NNW 19:23:25 32° NNE 19:28:39 10° E daylight
03 Oct - 21:04:50 10° WNW 21:10:25 81° NNE 21:17:04 10° E visible
03 Oct - 22:52:00 10° W 22:58:12 83° S 23:05:22 10° E visible
04 Oct - 00:39:22 10° WSW 00:46:03 68° NNW 00:53:24 10° ENE night (unlit)
04 Oct - 02:27:26 10° W 02:33:24 29° NW 02:39:34 10° NNE night (unlit)
04 Oct - 19:01:04 10° NNW 19:05:31 33° NNE 19:10:41 10° E daylight
04 Oct - 20:47:05 10° WNW 20:52:32 83° NNE 20:59:02 10° E visible
04 Oct - 22:34:14 10° W 22:40:17 83° S 22:47:20 10° E visible
05 Oct - 00:21:33 10° W 00:28:04 66° NNW 00:35:19 10° ENE visible
05 Oct - 02:09:38 10° W 02:15:22 27° NW 02:21:22 10° NNE night (unlit)
05 Oct - 18:43:14 10° NNW 18:47:37 34° NNE 18:52:42 10° E daylight
05 Oct - 20:29:20 10° WNW 20:34:39 85° NNE 20:41:00 10° E visible
05 Oct - 22:16:27 10° W 22:22:21 83° S 22:29:16 10° E visible
06 Oct - 00:03:43 10° W 00:10:04 63° NNW 00:17:14 10° ENE visible
06 Oct - 01:51:51 10° W 01:57:20 25° NW 02:03:07 10° NNE night (unlit)
06 Oct - 18:25:24 10° NW 18:29:43 36° NNE 18:34:43 10° E daylight
06 Oct - 20:11:34 10° WNW 20:16:45 87° NNE 20:22:57 10° E visible
06 Oct - 21:58:40 10° W 22:04:25 84° S 22:11:12 10° E visible
06 Oct - 23:45:53 10° W 23:52:05 60° NNW 23:59:06 10° NE visible
07 Oct - 01:34:06 10° W 01:39:17 23° NW 01:44:48 10° NNE night (unlit)
07 Oct - 18:07:34 10° NW 18:11:49 37° NNE 18:16:44 10° E daylight
07 Oct - 19:53:49 10° WNW 19:58:51 89° NNE 20:04:52 10° E visible
07 Oct - 21:40:53 10° W 21:46:29 85° S 21:53:07 10° E visible
07 Oct - 23:28:04 10° W 23:34:04 57° NNW 23:40:57 10° NE visible
08 Oct - 01:16:21 10° W 01:21:14 21° NW 01:26:26 10° N night (unlit)
08 Oct - 17:49:43 10° NW 17:53:55 39° NNE 17:58:44 10° E daylight
08 Oct - 19:36:02 10° W 19:40:57 89° S 19:46:49 10° E daylight
08 Oct - 21:23:04 10° W 21:28:32 86° S 21:35:01 10° E visible
08 Oct - 23:10:13 10° W 23:16:03 53° NNW 23:22:46 10° NE visible
09 Oct - 00:58:39 10° W 01:03:11 20° NW 01:08:01 10° N night (unlit)
09 Oct - 17:31:51 10° NW 17:36:01 40° NNE 17:40:45 10° E daylight
09 Oct - 19:18:15 10° W 19:23:03 87° S 19:28:45 10° E daylight
09 Oct - 21:05:16 10° W 21:10:35 87° S 21:16:55 10° E visible
09 Oct - 22:52:23 10° W 22:58:02 50° NNW 23:04:34 10° NE visible
10 Oct - 00:40:59 10° WNW 00:45:07 18° NW 00:49:32 10° N night (unlit)
10 Oct - 17:13:59 10° NW 17:18:06 42° NNE 17:22:45 10° E daylight
10 Oct - 19:00:27 10° W 19:05:08 85° S 19:10:41 10° E daylight
10 Oct - 20:47:27 10° W 20:52:38 89° SSE 20:58:48 10° E visible
10 Oct - 22:34:33 10° W 22:40:01 47° NNW 22:46:21 10° NE visible
11 Oct - 00:23:21 10° WNW 00:27:03 16° NW 00:30:58 10° N night (unlit)
11 Oct - 16:56:05 10° NW 17:00:10 45° NNE 17:04:45 10° E daylight
11 Oct - 18:42:38 10° W 18:47:14 84° S 18:52:36 10° E daylight
11 Oct - 20:29:37 10° W 20:34:40 89° NNW 20:40:40 10° ENE visible
11 Oct - 22:16:44 10° W 22:21:59 44° NNW 22:28:06 10° NE visible
